P/2003 T12 ( SOHO ) 2007

Japanese version
Home page
Updated on November 4, 2020

---------------------------------------------------------------------

* Profile

* Orbital Elements

Epoch 2007 Dec. 6.0 TT = JDT 2454440.5
T 2007 Dec. 13.85452 TT                                 MPCW
q   0.5775199            (2000.0)            P               Q
n   0.23917568     Peri.  217.66136     +0.82707779     -0.56195364
a   2.5703447      Node   176.46217     +0.55183159     +0.80764423
e   0.7753142      Incl.   11.46452     +0.10688419     +0.17865862
P   4.12
From 333 observations 2012 Jan. 13-2016 Feb. 22, mean residual 4".8.

* Finding Charts

* Magnitudes Graph

        m1 = 20.5 + 5 log d + 25.0 log r

---------------------------------------------------------------------

The orbital elements are published on M.P.E.C. 2016-E131.
The charts are made with StellaNavigator Ver.8 (AstroArts).
The magnitudes graphs are made with Comet for Windows.

---------------------------------------------------------------------

Copyright(C) Seiichi Yoshida (comet@aerith.net). All rights reserved.